Create Custom Reports and Graphics: Custom Report

Map - Northern Napa County

Map

15 Minute Data

Map - Southern Napa County

Map

15 Minute Data

Northeast Napa County

10 Stations

15 Minute Data | America/Los_Angeles
as of 5/9/26 7:21 PM PDT
Station Date Time Temp (°F) RH (%) Dew Pt (°F) Wind Spd (mph) Wind Dir (°) Wind Gust (mph) Latest Rain (In) Daily Rain (In) Daily Max Temp (°F) Daily Min Temp (°F)
Dollarhide 18A Remote 5/9/26 1915 77.9   3.2 55   8 60.5   0.7 - - - - - 86.2   4.1 45.3   1.9
Dollarhide 1AS Remote 5/9/26 1915 80.2   3.4 50   8 60.2   0.8 3.3   0.5 SE | 133 9.9   2.6 - - 87.3   3.5 47.8   1.7
Angwin 5/9/26 1915 69.8   0.4 57   5 53.9   1.7 3.3   2.0 SE | 141 6.3   1.8 0.00 0.00 77.6   2.4 60.1   4.0
Lower Angwin (Pioneer) 5/9/26 1915 73.4   3.0 - - 4.6   0.8 SW | 236 9.5   0.5 - - 79.8   3.9 50.1   7.3
Lower Chiles Valley (Brown) 5/9/26 1915 77.9   3.7 46   10 55.3   2.3 4.7   0.2 NNW | 339 10.4   0.4 0.00 0.00 83.0   3.9 47.8   2.3
Deer Park 5/9/26 1915 73.1   1.3 52   7 54.6   2.3 5.4   0.6 SE | 134 9.6   0.4 0.00 0.00 85.5   6.2 49.7   0.6
Moss Creek Vineyard/Reservior 5/9/26 1915 76.8   3.3 46   10 54.6   2.5 - - - 0.00 0.00 87.6   2.7 49.4   1.2
Montesol 5/9/26 1915 72.3   3.4 - - - - - 0.00 0.00 82.7   5.4 50.9   7.4
Dollarhide Base 5/9/26 1915 79.9   3.7 53   8 61.2   0.5 3.6   1.2 SSE | 168 8.8   0.7 0.00 0.00 88.1   2.1 51.4   2.1
Pope Valley (Weeks Lake) 5/9/26 1915 81.0   3.3 45   5 57.8   0.1 1.9   0.5 S | 170 4.2   0.4 0.00 0.00 88.0   5.3 46.8   0.8
Max     81.0 57 61.2 5.4 - 10.4 0.00 0.00 88.1 60.1
Avg     76.2 51 57.2 3.8 - 8.4 0.00 - - -
Min     69.8 45 53.9 1.9 - 4.2 0.00 0.00 77.6 45.3

Northern & Central Napa County

32 Stations

15 Minute Data | America/Los_Angeles
as of 5/9/26 7:21 PM PDT
Station Date Time Temp (°F) RH (%) Dew Pt (°F) Wind Spd (mph) Wind Dir (°) Wind Gust (mph) Latest Rain (In) Daily Rain (In) Daily Max Temp (°F) Daily Min Temp (°F)
Calistoga-North 5/9/26 1915 80.0   1.5 46   6 57.7   2.2 - - - 0.00 0.00 89.1   2.7 48.3   3.8
Stags Leap Dist (Chimney Rock) 5/9/26 1915 71.0   0.5 58   4 55.4   1.4 5.8   0.5 SE | 143 12.1   1.9 0.00 0.00 78.9   3.6 45.7   7.1
Diamond Mtn (McEachran) 5/9/26 1915 78.3   3.4 49   8 57.7   1.1 - - - - - 84.4   2.6 50.2   0.5
Diamond Mtn (Schramsberg) 5/9/26 1915 75.0   3.9 51   13 55.6   2.8 - - - 0.00 0.00 85.1   3.8 50.0   0.8
Stags Leap Dist (Silverado Vineyards) 5/9/26 1915 70.2   0.8 53   5 52.0   1.9 5.9   0.6 SE | 135 16.2   2.4 0.00 0.00 78.9   3.6 46.8   5.4
Oak Knoll-East (Ranch 53) 5/9/26 1915 69.4   1.1 55   2 52.6   0.1 4.0   1.1 SE | 144 8.6   1.9 0.00 0.00 80.4   4.3 47.7   4.9
Rutherford-North (Mee Ln) 5/9/26 1915 72.5   0.8 53   4 54.3   1.1 7.0   0.6 SE | 145 14.0   2.2 0.00 0.00 82.3   3.7 44.6   4.8
Frisinger Napa-NW 5/9/26 1915 69.6   0.6 62   2 55.9   1.4 5.5   1.8 SSE | 165 9.6   3.2 0.00 0.00 81.7   4.2 47.3   5.5
Napa-North (Ranch 29) 5/9/26 1915 69.0   0.2 56   7 52.6   3.1 5.6   2.4 S | 179 13.2   5.3 0.00 0.00 78.4   4.5 48.8   3.0
St. Helena (NVV Office) 5/9/26 1915 75.7   1.5 - - 2.8   0.0 ESE | 117 6.3   1.1 0.00 0.00 88.7   6.2 49.7   3.4
Crossroads Ranch 5/9/26 1915 71.5   0.8 59   1 56.3   1.1 9.8   0.8 SE | 137 15.9   1.8 0.00 0.00 80.9   4.4 47.8   5.2
Oakville 5/9/26 1915 71.6   0.5 52   4 52.8   1.4 9.0   2.3 SE | 138 17.5   4.1 0.00 0.00 80.0   3.7 47.4   5.2
OV561-East 5/9/26 1915 73.0   0.6 - - - - - - - 82.8   3.6 48.0   5.4
OV518-West 5/9/26 1915 71.6   0.4 - - - - - - - 80.5   3.5 48.1   4.9
Napa-NW (Ranch 54) 5/9/26 1915 72.4   0.6 52   2 53.8   0.4 0.9   0.0 SE | 135 3.2   0.2 0.00 0.00 84.1   5.2 48.8   3.9
Calistoga (Ranch 78) 5/9/26 1915 80.3   4.5 41   15 54.6   4.3 3.4   0.8 NW | 324 5.9   0.2 0.00 0.00 86.6   3.1 47.8   4.4
Yountville-SE (Ranch 85) 5/9/26 1915 70.6   0.2 55   3 53.7   1.7 5.8   0.8 SSE | 165 12.0   2.4 0.00 0.00 79.0   4.0 48.0   4.9
Yountville-South (Ranch 87) 5/9/26 1915 70.8   0.2 55   0 53.7   0.2 4.3   0.6 SE | 135 8.9   1.8 0.00 0.00 80.2   3.7 47.8   4.9
Rutherford Hill Estate 5/9/26 1915 74.5   0.2 49   5 54.3   2.4 2.5   1.2 S | 171 11.0   5.0 0.00 0.00 83.4   4.7 50.2   1.2
Rutherford (STS) 5/9/26 1915 71.9   0.6 59   3 56.9   0.9 5.4   0.2 SE | 127 12.2   1.3 0.00 0.00 83.8   4.2 47.0   5.9
Borreo (Soda Canyon) 5/9/26 1915 67.8   1.2 58   6 52.6   1.5 2.5   0.4 SSW | 201 6.4   0.1 0.00 0.00 76.5   3.9 45.4   4.8
Oakville-NE (Ranch 88) 5/9/26 1915 72.6   0.6 49   5 52.2   1.8 6.7   1.7 S | 174 15.1   1.9 0.00 0.00 82.5   4.2 46.5   6.4
Soda Canyon 5/9/26 1915 69.6   0.2 64   3 57.0   1.2 6.1   2.7 S | 177 10.9   3.7 0.00 0.00 77.6   4.0 46.8   5.5
Silver Oak OV 5/9/26 1915 71.8   0.6 53   4 53.9   1.4 8.6   1.1 SE | 130 15.6   2.1 0.00 0.00 80.4   4.3 47.4   5.4
Tiara Fria (East St. Helena) 5/9/26 1915 74.6   1.1 49   6 54.4   2.0 4.0   0.4 SE | 138 7.9   1.2 0.00 0.00 83.5   4.4 50.0   3.0
To Kalon Remote (TKKE) 5/9/26 1915 73.4   0.3 - - - - - - - 83.8   4.5 47.0   6.0
To Kalon 5/9/26 1915 72.0   0.4 54   2 54.6   0.8 7.6   1.5 SSE | 151 13.8   1.6 0.00 0.00 80.6   3.2 47.4   5.2
To Kalon Remote (TKN5) 5/9/26 1915 73.5   0.3 - - - - - - - 84.6   4.5 47.5   5.6
St. Helena-North 5/9/26 1915 75.1   2.0 50   5 55.0   1.0 5.8   0.6 SSE | 150 9.4   0.2 0.00 0.00 88.0   7.5 49.0   3.8
Twomey Calistoga 5/9/26 1915 80.2   3.4 43   13 55.9   4.2 2.3   0.6 N | 351 4.6   0.6 0.00 0.00 85.5   2.7 45.8   5.1
Wappo Hill Floor 5/9/26 1915 70.7   0.1 54   3 53.2   1.7 5.7   0.6 SSE | 150 11.2   1.6 0.00 0.00 80.0   4.0 44.9   6.5
Yountville (Ranch 67) 5/9/26 1915 69.8   0.7 52   4 51.6   1.5 5.2   1.0 SE | 146 11.5   1.4 0.00 0.00 79.2   4.3 46.9   5.3
Max     80.3 64 57.7 9.8 - 17.5 0.00 0.00 89.1 50.2
Avg     72.8 53 54.5 5.3 - 10.9 0.00 - - -
Min     67.8 41 51.6 0.9 - 3.2 0.00 0.00 76.5 44.6

Southern Napa County

23 Stations

15 Minute Data | America/Los_Angeles
as of 5/9/26 7:21 PM PDT
Station Date Time Temp (°F) RH (%) Dew Pt (°F) Wind Spd (mph) Wind Dir (°) Wind Gust (mph) Latest Rain (In) Daily Rain (In) Daily Max Temp (°F) Daily Min Temp (°F)
Carneros (Milton Rd) 5/9/26 1915 65.9   0.4 63   0 53.0   0.5 - - - 0.00 0.00 76.9   2.2 45.5   6.0
Carneros Lower (Ranch 81) 5/9/26 1915 65.0   0.3 65   1 52.9   0.6 0.6   1.3 W | 280 4.9   1.1 0.00 0.01 81.0   3.3 46.6   4.7
Carneros Upper (Ranch 81) 5/9/26 1915 63.9   0.5 64   3 51.4   0.8 9.5   1.6 W | 264 14.2   2.7 - - 77.4   4.0 50.1   0.2
Carneros (Mitsuko) 5/9/26 1915 66.2   0.9 - - - - - - - 78.4   4.0 43.3   7.7
Mount George (Napa East) 5/9/26 1915 70.4   2.3 61   5 56.2   0.1 2.6   0.5 SE | 125 6.8   0.4 0.00 0.00 79.4   5.0 52.4   1.4
Napa-East (Palmaz 300') 5/9/26 1915 70.0   0.6 55   4 53.3   1.4 3.3   0.6 S | 169 8.2   1.5 0.00 0.00 78.4   3.6 50.0   1.2
Napa-East (Palmaz 1200') 5/9/26 1915 66.3   0.3 61   4 52.6   1.5 3.4   1.6 SW | 235 8.5   2.7 - - 73.2   4.0 45.5   2.6
Napa-East (Palmaz 1400') 5/9/26 1915 64.6   1.2 66   5 53.2   0.9 3.9   0.3 SW | 214 9.1   0.6 0.00 0.00 73.7   4.0 47.4   0.3
Dealy Lane (Ranch 80) 5/9/26 1915 65.0   2.2 62   5 51.7   0.4 2.9   0.7 WSW | 246 8.0   2.2 0.00 0.00 79.4   5.0 48.3   2.5
Suscol Mtn (Ranch 93) 5/9/26 1915 65.3   1.6 66   5 53.5   0.3 5.7   2.3 W | 260 10.7   3.8 0.00 0.00 76.8   4.2 49.8   2.1
Carneros (Saintsbury) 5/9/26 1915 66.6   2.2 61   5 52.7   0.5 5.8   2.4 WSW | 241 9.7   2.9 0.00 0.00 78.4   3.4 46.0   2.3
Sugarloaf West 5/9/26 1915 67.1   1.5 64   7 54.4   1.5 5.1   1.4 S | 176 10.2   0.1 0.00 0.00 75.6   4.6 49.7   1.6
Suscol Upper (Ranch 92) 5/9/26 1915 65.9   1.5 63   6 53.0   1.1 3.4   1.4 SSW | 212 10.3   3.0 0.00 0.00 73.7   2.9 50.4   2.1
Stanly (Ranch 45) 5/9/26 1915 68.0   1.1 57   7 52.3   2.0 10.0   2.8 SW | 222 14.6   3.9 0.00 0.00 77.8   5.0 45.7   3.6
Suscol Lower (Ranch 35) 5/9/26 1915 66.3   1.2 62   5 53.0   1.1 6.9   0.7 SSW | 204 12.7   1.7 0.00 0.00 75.6   3.3 48.8   1.7
Napa-South (Toyon Farms) 5/9/26 1915 66.1   1.8 67   3 55.0   0.6 6.8   1.9 SW | 232 10.1   1.2 0.00 0.00 78.0   3.9 49.4   1.5
Toyon Remote 1 5/9/26 1915 64.1   1.3 - - - - - - - 80.7   3.6 42.1   9.1
Toyon Remote 2 5/9/26 1915 67.3   1.1 - - - - - - - 78.6   2.8 45.4   6.0
Toyon Remote 3 5/9/26 1915 65.9   1.2 - - - - - - - 81.1   3.2 46.0   5.5
Napa-West Lower (Truchard) 5/9/26 1915 66.7   3.1 60   5 52.6   0.4 - - - - - 81.0   4.6 43.1   7.0
Napa-West Upper (Truchard) 5/9/26 1915 66.0   1.7 62   3 52.6   0.3 6.3   2.3 SSW | 206 12.4   6.0 0.00 0.00 79.2   4.9 49.8   0.7
Mt. Veeder 5/9/26 1915 69.7   4.1 60   13 55.3   1.5 0.5   0.2 S | 186 3.1   1.4 0.00 0.00 81.8   6.9 52.6   6.2
Wooden Valley 5/9/26 1915 69.9   1.3 54   5 52.7   1.2 5.9   1.0 W | 259 11.0   0.1 0.00 0.00 77.5   3.4 51.6   2.6
Max     70.4 67 56.2 10.0 - 14.6 0.00 0.01 81.8 52.6
Avg     66.6 62 53.2 4.9 - 9.7 0.00 - - -
Min     63.9 54 51.4 0.5 - 3.1 0.00 0.00 73.2 42.1